星链-36626(STARLINK-36626)

导读

STARLINK-36626是美国星链(Starlink)项目的卫星,于2026年1月29日发射。作为星链星座的组成部分,它依托SpaceX的可重复运载技术入轨,旨在为全球提供高速低延迟卫星互联网服务,覆盖偏远地区、海上与航空场景,进一步扩展星链星座的全球覆盖与服务容量,支撑美国低轨卫星互联网布局。

基本信息
目录编号:
67603
目录名称:
STARLINK-36626
国际标识:
2026-018Q
轨道中心:
EARTH
卫星名称:
星链-36626
卫星全名:
星链-36626(STARLINK-36626)
卫星状态:
在轨 (已飞行218 天)
发射日期:
2026-01-29 UTC
国别 :
美国 (US)
星等 :
--
轨道信息
数据来源 国际轨道数据
星历时间: 2026-09-04T00:16:20+0800
17小时前
查看轨道信息
半长轴: 6843.628km
偏心率: 0.0001409
轨道倾角: 97.288°
近地点辐角 122.483°
升交点赤经 310.398°
平近点角 237.655°
近地点: 464.526km
远地点: 466.456km
周期: 93.905分钟
每日圈数: 15.334627
详细信息
固有亮度:
5
最大亮度:
2.5
卫星平台:
Starlink V1.0
覆盖范围:
全球
运营商:
太空探索技术公司
运营商所在国:
美国
制造商(研发单位):
太空探索技术公司
制造商所在国:
美国
使用方式:
暂无
卫星简介
Starlink 计划是 SpaceX 推出的全球卫星互联网项目,通过发射低轨道卫星,为全球尤其是偏远地区提供高速、低延迟的互联网服务。自 2019 年起,Starlink 已部署数千颗卫星,旨在缩小全球数字鸿沟,推动互联网普及。该项目还为军事、航空等行业提供通信支持,带来广泛经济效益。
2D轨道图
3D轨道图
轨道高度分析图
轨道倾角分析图
轨道综合分析图
查看轨道综合分析图